Wind_Speed
22 19 17 19 23 24 24 22 21 19 18 18 19 18 16 13 12 10 10 10 11 10 8 7 9 9 9 8 7 5 5 6 8 8 9 10 9 8 6 4 4 5 5 4 4 4 5 6 7 9 10 11 12 13 14 14 15 15 13 13 11 8 8 8 7 10 12 12 11 13 16 17 17 17 17 16 15 14 13 12 11 10 9 9 8
23 22 20 22 24 24 24 22 20 19 19 19 19 18 16 15 14 12 11 10 9 9 8 8 10 10 10 9 8 7 6 7 8 9 9 9 8 6 5 4 5 6 6 5 5 4 5 7 8 8 8 9 9 10 12 13 14 16 17 16 17 15 12 9 9 12 14 14 13 14 16 17 17 17 17 17 15 14 13 12 11 10 9 7 7
25 24 22 21 23 23 23 22 21 21 20 20 18 17 16 16 15 13 11 10 9 8 8 9 11 11 10 9 8 8 8 8 8 8 9 9 8 6 6 6 6 6 6 6 5 5 5 7 8 8 8 8 8 9 10 12 13 16 18 20 21 20 16 12 10 12 16 16 14 15 17 18 17 17 17 16 14 13 12 12 10 10 8 7 6
24 24 21 20 22 23 23 22 22 22 20 18 17 15 15 16 16 14 12 9 8 8 8 10 11 11 10 9 8 8 9 8 8 8 9 10 9 7 7 7 6 5 5 5 5 3 3 5 6 7 7 7 7 7 7 8 9 10 13 17 21 23 20 16 12 11 15 18 17 16 17 18 16 16 15 15 14 12 11 11 10 9 8 7 6
22 22 21 20 23 23 23 23 22 21 20 17 15 13 13 16 16 14 11 9 8 8 9 11 12 11 10 9 8 8 8 9 8 8 8 9 9 8 7 6 5 5 5 4 4 3 2 3 4 4 4 5 5 5 5 6 7 7 9 10 14 18 19 18 16 13 13 17 18 17 17 17 16 15 14 14 14 12 11 10 10 10 10 9 7
22 21 21 22 24 24 23 23 21 20 18 15 13 11 11 15 17 14 10 8 8 9 10 11 12 11 10 10 8 8 8 9 9 8 8 8 8 7 6 6 6 6 5 4 3 2 2 3 4 4 3 3 3 3 4 4 5 7 8 7 7 10 14 18 18 14 12 14 17 19 19 18 17 15 15 14 13 13 11 10 9 11 12 10 9
22 22 22 24 25 25 24 23 22 20 17 14 11 10 11 15 16 14 10 7 8 9 9 10 11 11 10 9 8 7 8 9 8 8 8 7 6 6 7 7 7 6 5 5 4 3 2 3 3 3 2 1 1 2 3 4 5 6 7 7 6 7 11 16 17 16 13 13 16 19 19 19 17 16 15 14 13 13 12 11 12 13 12 11 10
22 22 23 24 24 23 22 21 20 19 16 12 10 8 7 10 13 12 10 8 8 8 8 9 11 12 11 10 9 8 8 8 8 8 8 7 7 6 7 8 8 7 7 6 6 5 5 4 3 2 2 2 2 2 2 3 3 5 6 6 7 7 10 15 16 15 14 14 15 17 18 18 18 16 14 14 15 14 14 15 16 16 14 12 10
17 17 16 16 17 17 17 17 18 18 15 9 7 8 6 4 7 9 8 7 7 8 9 9 11 12 12 12 11 10 10 10 9 9 9 9 8 8 9 9 10 9 9 9 8 8 8 7 7 6 5 5 5 5 4 3 3 4 5 7 8 9 11 13 14 14 14 14 15 16 16 17 18 17 17 18 18 18 17 17 17 17 15 12 10
12 11 10 9 11 13 14 15 16 17 15 8 6 10 9 5 6 7 6 7 10 11 11 11 12 11 12 12 12 12 12 12 11 11 11 10 10 11 11 11 11 11 11 11 11 11 10 10 9 9 8 8 8 8 7 6 6 5 6 6 8 10 12 13 14 14 14 15 15 16 17 18 19 20 20 20 20 18 19 19 18 17 15 11 9
12 10 9 9 10 12 13 14 14 15 16 11 10 15 15 10 8 8 8 11 13 13 13 14 13 13 13 13 13 13 13 12 12 12 12 12 12 12 13 14 14 14 13 13 14 14 13 12 12 11 11 11 11 11 10 10 9 9 8 8 8 10 12 13 13 14 15 16 17 18 19 20 21 21 20 20 20 19 20 20 19 18 15 11 8
19 15 13 12 11 12 13 14 12 11 12 11 11 14 13 11 10 11 11 11 11 11 12 14 14 15 15 15 16 15 15 14 14 15 15 15 15 15 15 16 16 16 16 15 16 16 16 15 15 14 14 13 13 13 13 13 13 13 12 11 11 12 13 14 14 14 15 16 17 19 21 21 21 21 22 21 21 20 19 18 18 17 15 12 9
25 22 20 17 16 15 15 15 14 12 11 11 11 11 11 10 10 10 8 7 6 6 7 7 8 9 10 10 12 12 12 13 14 16 17 19 20 20 20 19 19 19 19 19 19 19 19 19 19 18 17 16 16 16 16 16 16 16 16 16 15 15 16 17 18 18 18 18 19 20 21 22 22 22 23 22 22 21 20 18 16 15 12 10 8
28 27 25 22 20 20 19 19 17 15 15 14 13 13 13 12 11 11 10 8 7 7 7 6 6 5 4 5 5 5 6 7 8 9 12 14 17 19 20 22 22 22 22 22 22 23 22 22 22 21 20 19 19 19 19 19 19 19 20 19 19 20 20 20 21 21 22 22 22 21 21 21 22 23 23 22 22 22 22 19 16 13 10 7 6
31 30 30 27 25 25 25 24 22 19 17 16 16 15 13 12 11 10 9 8 6 6 6 5 5 5 4 4 4 4 4 5 6 6 8 9 11 13 15 17 19 21 21 22 23 23 23 24 24 23 22 22 22 22 21 21 21 21 21 21 21 22 22 23 23 22 24 25 23 21 20 20 22 22 22 22 21 20 19 16 13 10 8 7 6
31 31 31 29 28 28 28 28 27 24 22 20 19 17 16 14 13 10 9 7 6 6 5 4 4 3 2 2 3 3 4 5 7 8 9 10 11 11 13 14 16 18 20 20 21 22 22 23 24 24 24 24 23 22 22 21 21 22 22 22 22 23 23 23 23 23 23 23 20 17 16 16 18 20 21 22 21 19 16 13 11 9 8 8 7
29 29 29 28 27 27 27 28 27 24 23 22 21 20 18 16 15 13 12 11 11 10 8 7 7 6 4 3 2 1 1 2 4 6 8 10 11 12 13 15 16 18 20 20 21 22 22 23 23 23 24 24 23 22 21 21 21 21 22 22 23 23 23 23 22 21 20 19 19 17 13 11 13 17 19 19 19 17 15 13 11 10 9 8 7
27 27 27 26 26 25 24 25 24 23 23 22 20 19 18 16 14 12 11 12 13 12 11 10 9 9 8 7 6 6 5 4 3 4 6 7 9 11 12 14 15 17 18 19 20 21 22 22 22 22 23 23 23 22 22 22 22 22 22 23 23 24 24 23 21 18 16 16 17 16 14 16 17 15 13 11 11 11 11 10 10 10 9 8 7
25 25 24 24 24 23 22 22 21 21 21 20 19 18 17 15 13 12 11 10 10 10 9 9 9 10 10 9 8 7 7 7 6 6 6 7 8 9 10 13 14 15 16 17 19 20 21 21 21 21 22 23 23 23 22 22 23 23 23 23 24 26 26 24 21 18 16 15 15 15 17 19 18 14 11 9 9 9 8 7 7 7 7 6 5
22 22 22 22 23 22 21 21 20 19 18 16 16 15 14 13 12 11 11 10 8 8 8 8 8 9 9 9 9 9 9 9 8 8 8 8 8 8 9 11 13 15 16 18 19 20 21 21 21 21 22 22 22 23 23 23 24 23 23 24 26 27 26 24 22 20 18 17 17 18 19 18 16 14 13 12 10 9 7 6 5 5 4 5 5
20 20 21 21 22 21 21 21 20 19 17 14 13 12 12 11 10 10 10 9 9 8 8 8 8 8 8 8 8 9 9 10 10 10 10 10 10 10 10 9 11 13 16 18 20 21 22 21 21 22 23 23 23 22 22 22 23 23 24 25 26 26 25 24 23 21 19 20 21 21 20 18 17 15 14 13 11 9 7 6 5 4 4 4 4
20 20 21 21 21 20 20 19 19 18 16 14 13 13 12 11 10 10 9 9 9 10 10 10 10 9 9 9 9 9 9 9 10 11 11 11 11 11 11 10 9 11 14 17 19 21 22 21 21 21 23 24 24 24 23 22 21 22 24 25 25 25 24 24 23 22 22 23 23 22 20 18 18 17 15 13 11 8 7 6 5 5 4 3 3
20 21 22 22 21 20 19 18 18 17 16 15 14 14 14 12 12 11 10 10 10 10 11 11 12 12 12 11 10 10 10 9 10 11 11 12 12 12 12 12 11 11 13 15 17 19 20 21 22 22 24 25 25 25 24 23 22 21 20 21 23 23 23 23 24 24 24 24 22 21 19 19 18 17 15 13 10 9 8 7 6 5 4 3 1
20 21 22 22 21 20 19 18 17 17 16 15 15 15 14 13 13 12 11 11 11 10 11 12 12 13 13 13 13 13 12 11 11 11 12 12 12 13 13 13 13 14 14 14 14 15 17 19 21 22 24 25 25 24 23 23 23 21 18 18 21 22 20 22 25 25 24 23 22 20 19 18 17 16 15 13 11 11 9 8 6 5 3 1 1
21 21 21 20 19 18 18 17 17 16 16 15 15 14 14 13 13 12 12 12 11 12 12 13 14 14 15 16 17 17 16 16 14 14 13 13 13 13 13 13 14 15 15 15 14 13 13 14 17 19 21 22 22 23 23 23 22 20 17 17 20 22 22 25 28 27 25 24 22 20 19 18 16 15 15 14 13 11 9 8 6 4 2 1 1
20 20 19 18 17 17 18 17 17 16 16 15 15 14 14 13 13 12 12 12 12 12 13 13 14 15 16 18 19 20 20 19 18 17 17 16 15 14 14 14 13 14 15 15 14 12 11 11 13 16 18 20 20 21 22 22 20 17 15 16 20 22 24 28 30 28 26 25 23 22 21 19 18 16 15 14 12 10 8 7 5 4 3 2 2
18 18 18 17 17 17 18 18 17 17 17 17 16 15 15 14 14 14 14 14 14 14 14 14 16 17 19 20 21 21 21 21 20 19 19 19 18 17 16 15 15 15 15 14 13 11 10 11 13 16 18 19 20 20 20 19 17 13 12 16 20 23 27 29 28 28 28 27 25 24 22 21 19 18 15 13 11 10 7 5 5 4 3 2 4
16 16 15 15 16 17 17 17 18 18 18 18 18 18 18 17 16 16 14 14 14 15 15 16 18 18 19 21 22 23 23 22 21 21 21 21 21 20 19 17 17 17 17 16 13 11 11 12 15 17 18 17 17 17 16 15 14 13 13 16 20 24 28 30 29 29 29 28 26 25 24 22 20 18 15 13 11 9 8 6 5 5 3 3 4
14 14 13 13 15 16 15 16 16 17 17 17 17 17 16 16 16 16 14 11 11 13 15 16 16 16 16 17 18 21 23 23 21 20 21 21 21 21 21 19 19 20 20 18 15 13 14 15 17 16 15 14 14 14 12 11 11 12 15 18 20 22 24 26 27 27 27 26 26 26 24 22 19 17 15 13 11 10 8 7 5 4 4 3 4
12 12 11 12 13 13 13 14 14 15 16 17 17 17 16 14 13 14 15 13 11 11 12 12 12 13 14 14 14 16 19 21 21 21 21 21 21 21 21 20 20 21 21 19 16 15 16 17 17 16 14 14 14 13 11 11 12 14 17 20 21 21 22 23 23 24 25 25 25 24 23 21 20 18 16 14 12 11 9 7 5 3 3 2 4
12 12 11 12 12 11 11 12 14 14 15 16 17 17 18 18 15 14 14 14 13 11 9 9 10 11 12 14 14 15 17 19 20 21 22 22 21 21 21 20 21 21 21 20 16 16 16 17 17 16 15 16 16 15 14 15 17 20 22 23 24 25 25 24 24 24 25 23 22 22 21 20 20 18 16 14 12 11 8 6 4 2 1 2 4
13 12 12 12 11 10 10 12 13 13 14 16 16 16 18 19 19 18 18 16 14 13 12 11 11 11 11 12 14 15 17 18 18 19 20 20 20 20 20 20 20 20 21 19 15 15 16 17 18 18 17 18 18 18 18 20 22 24 26 26 25 25 24 24 24 24 23 22 21 20 20 19 18 17 15 13 11 10 7 5 3 2 1 1 3
14 13 13 12 11 10 11 13 13 14 15 16 17 17 17 17 18 21 21 20 18 17 15 14 12 12 11 11 12 13 14 14 15 16 17 17 18 18 19 19 19 19 19 18 16 16 17 18 18 19 20 21 21 21 21 22 23 25 26 26 24 23 22 23 24 23 21 20 20 19 19 18 17 16 14 12 9 8 6 4 3 3 1 1 3
14 13 13 11 11 11 12 13 13 14 16 17 18 18 17 16 15 18 21 22 22 21 20 17 15 13 12 11 11 12 13 13 13 14 14 15 16 17 18 19 19 19 18 16 15 16 18 18 19 20 20 21 21 21 22 22 23 25 25 24 24 24 24 25 24 22 20 19 18 18 18 17 16 14 12 10 8 6 6 5 4 3 1 2 4
12 13 13 11 10 11 12 13 13 15 17 19 19 18 18 17 16 16 17 19 20 22 23 21 19 16 14 13 13 14 13 13 13 14 14 16 16 17 18 18 18 18 16 15 15 16 18 18 18 18 19 20 21 22 23 22 22 23 25 26 26 26 26 25 23 20 19 18 18 17 17 15 12 10 8 7 7 7 6 5 4 2 1 3 5
11 12 12 10 9 10 12 12 13 15 17 19 19 18 17 16 16 16 18 18 19 21 22 22 20 17 15 15 16 16 15 14 14 15 15 16 16 16 17 17 17 16 15 14 15 17 18 18 17 16 17 19 21 22 22 22 23 24 25 26 26 26 25 23 21 20 19 17 15 15 14 12 10 8 7 7 7 7 6 5 3 2 2 3 4
10 11 12 9 8 9 10 10 11 14 17 18 18 17 16 15 15 16 18 20 20 21 21 21 21 19 18 19 20 20 18 16 14 14 14 16 16 16 15 14 13 13 13 13 13 15 17 18 17 15 16 17 19 21 21 22 24 24 23 24 25 26 25 23 21 18 15 13 12 12 11 10 9 7 7 8 9 8 7 6 4 2 1 1 3
9 10 10 8 7 7 7 7 9 12 15 17 17 17 15 14 15 17 18 19 20 20 19 20 21 21 22 23 24 24 22 20 18 18 19 19 20 18 15 13 11 10 11 12 11 12 14 15 15 14 14 16 18 19 20 23 25 24 24 25 25 24 22 20 18 15 12 12 13 13 11 10 9 7 7 9 10 10 8 7 4 1 1 2 4
8 9 9 7 6 6 5 5 8 11 13 15 16 16 15 14 15 16 17 18 18 18 18 19 20 21 22 23 24 25 25 24 24 23 22 21 20 18 16 14 12 10 10 11 10 10 10 11 12 13 13 14 15 16 20 24 26 26 26 26 25 22 20 18 16 14 13 14 14 13 11 10 10 9 10 11 11 9 7 5 3 2 3 3 4
8 9 9 6 5 5 5 4 6 9 12 14 14 14 14 14 14 14 15 16 16 16 16 18 19 19 20 21 22 23 24 23 22 22 21 20 20 18 17 16 14 12 11 10 9 8 8 9 10 11 10 11 13 16 21 24 26 25 25 24 23 21 19 17 16 15 15 15 13 12 11 10 11 13 13 12 10 8 5 3 3 3 3 2 4
9 10 9 6 4 5 5 4 5 8 11 12 13 12 12 12 11 12 13 14 15 14 14 15 16 16 16 17 18 19 20 20 20 19 19 19 19 18 17 16 15 14 13 11 9 8 7 7 7 7 8 10 14 18 20 21 22 24 23 21 20 19 18 16 16 15 15 13 12 11 10 11 12 13 12 10 8 6 4 3 2 3 3 3 4
9 10 8 6 4 5 5 4 5 8 10 10 10 11 11 10 9 10 12 13 13 13 12 12 13 13 14 15 16 18 19 20 20 20 19 18 18 18 17 16 15 14 12 11 9 7 5 3 3 5 7 9 13 16 18 19 22 23 21 19 18 18 17 16 15 13 12 12 11 11 11 12 12 12 11 9 7 5 3 3 2 3 4 4 5
8 9 8 6 5 6 6 5 5 8 9 9 9 10 9 8 8 9 11 12 12 12 11 11 11 13 13 14 15 18 20 21 21 21 20 19 18 17 16 15 14 12 11 10 9 7 4 2 4 5 7 10 13 16 18 21 21 20 18 18 18 17 15 14 13 12 11 11 11 11 11 12 12 11 10 8 6 4 3 2 3 4 5 5 6
6 7 6 5 5 5 6 6 7 8 7 7 8 9 8 7 7 9 10 11 11 11 10 10 11 11 12 13 16 19 21 22 22 22 21 19 18 17 16 15 13 13 12 11 10 8 6 6 8 10 12 14 16 17 20 20 18 16 16 17 16 15 13 13 12 11 10 10 11 11 11 12 12 10 8 7 5 5 4 3 3 5 5 6 7
4 5 5 5 4 5 5 6 8 8 5 3 5 8 8 6 7 8 9 9 10 10 10 10 10 10 10 12 14 16 18 19 19 20 20 20 19 18 17 16 15 16 16 16 15 14 14 14 15 17 18 18 18 18 18 17 15 14 13 12 12 13 14 13 12 10 9 9 9 10 11 11 10 8 6 6 4 4 4 4 4 4 5 8 9
3 3 4 3 3 4 5 6 7 7 5 2 4 7 7 6 6 7 7 7 8 8 9 10 10 10 10 10 11 13 14 15 16 17 19 20 20 19 18 17 17 17 18 18 18 18 18 18 17 17 17 16 16 15 14 13 12 11 9 9 9 12 13 12 11 10 9 8 8 10 11 11 9 6 5 4 3 2 4 6 6 5 5 7 9
3 2 2 2 2 2 3 4 5 6 5 4 4 6 6 5 4 5 5 5 6 6 8 9 9 9 9 10 11 12 13 14 16 16 16 17 18 19 18 18 18 18 18 18 18 18 19 19 18 17 16 14 13 12 11 10 9 9 9 10 11 11 11 11 10 10 10 9 8 9 9 7 6 4 3 3 2 1 2 4 7 7 6 6 8
4 3 2 1 1 1 0 1 3 5 5 4 4 6 6 4 3 3 4 4 5 5 6 7 8 8 8 9 10 11 12 13 15 15 15 16 17 18 18 18 19 19 19 19 19 19 19 18 17 16 15 14 13 12 11 10 9 10 10 11 10 10 10 10 9 10 10 10 10 9 7 4 3 3 2 1 1 1 1 1 3 5 6 6 7
6 5 5 3 1 1 1 0 2 4 4 4 3 4 5 4 3 2 3 4 4 5 5 6 6 7 8 9 9 10 11 12 13 13 14 15 16 16 16 17 17 17 17 18 17 17 16 15 15 14 14 13 13 13 12 11 11 11 11 11 10 10 10 10 10 10 10 10 9 7 5 3 2 1 1 1 1 1 1 1 1 3 5 6 7
8 8 7 5 3 2 2 1 1 2 3 3 3 3 4 4 3 2 2 3 4 4 5 5 6 7 7 8 8 9 10 10 11 12 12 13 14 14 14 15 15 16 16 16 15 14 13 13 12 11 11 11 12 12 12 12 12 12 12 11 11 11 10 10 10 9 9 8 7 5 3 1 1 1 1 1 2 2 1 1 1 2 4 6 7
9 10 10 8 5 3 3 2 1 0 1 2 2 2 3 3 3 2 1 2 3 4 3 4 5 6 7 7 8 9 9 10 10 10 11 11 11 11 11 11 12 13 13 14 13 12 11 10 9 9 9 9 10 11 11 11 11 11 11 11 11 10 10 9 9 8 7 5 4 3 2 2 2 2 1 2 2 2 2 2 3 3 4 5 6
Wind_Direction
184 183 186 192 193 189 189 189 188 187 186 188 190 190 190 193 195 196 192 183 181 182 186 190 184 178 176 176 172 168 162 155 158 164 163 159 156 153 150 157 168 157 145 133 121 129 138 132 134 139 142 149 157 169 181 189 196 202 209 218 224 218 192 178 152 155 179 185 176 178 178 172 168 167 168 168 162 156 149 142 137 131 126 121 117
180 184 187 189 190 187 186 187 186 186 186 187 190 190 191 195 196 197 194 186 178 178 187 193 188 183 180 180 178 179 179 167 163 170 172 167 164 163 162 169 177 171 162 155 145 146 150 144 143 150 157 167 175 185 196 204 212 217 222 229 234 230 216 200 174 163 176 186 183 183 185 182 179 175 175 175 171 167 160 154 150 146 144 145 143
177 184 185 184 187 187 186 187 186 186 187 189 190 190 194 198 197 197 195 188 176 175 189 196 192 188 186 186 187 189 190 182 175 176 181 181 178 174 169 165 162 158 155 154 151 149 155 156 156 161 169 180 189 200 212 219 225 230 233 235 238 238 226 211 200 182 179 184 188 190 189 188 188 186 183 182 180 178 174 168 163 158 158 164 166
180 184 183 182 184 185 186 186 186 186 188 192 190 189 196 198 196 198 198 189 173 173 189 197 196 194 194 193 192 193 193 190 186 182 182 186 186 179 172 168 167 162 156 154 152 147 154 161 164 170 180 191 201 209 221 237 242 245 247 243 242 243 234 218 217 208 189 187 191 194 194 193 193 194 191 191 192 192 190 187 181 174 172 177 178
179 182 181 179 180 181 182 183 185 186 189 193 191 188 196 198 196 198 200 190 175 174 189 200 203 203 202 200 194 190 189 186 183 180 178 181 183 182 182 183 182 177 173 171 161 154 168 178 178 178 186 202 216 225 237 257 269 274 275 264 250 246 238 222 219 221 207 197 194 193 197 200 200 200 199 199 201 202 200 202 200 191 182 179 177
176 178 179 178 177 176 177 179 182 184 184 184 185 187 194 196 196 198 202 196 182 181 195 210 214 213 211 207 199 191 188 183 181 182 184 187 189 197 208 208 199 192 192 196 187 166 169 183 188 185 186 206 227 254 274 285 295 297 297 295 275 250 232 220 218 223 224 215 202 194 198 204 205 207 206 208 212 212 206 201 197 189 183 179 173
176 179 183 183 181 179 180 182 183 180 176 177 181 187 192 195 196 199 205 204 191 189 205 219 220 216 213 212 206 199 194 191 192 196 200 207 216 229 233 225 216 211 218 227 226 214 194 181 181 182 185 216 245 278 298 305 310 309 305 300 289 254 224 217 219 225 229 224 208 200 201 205 208 212 213 214 217 218 210 193 175 171 176 178 174
174 178 183 184 183 181 183 184 181 176 176 179 176 166 176 191 193 200 212 214 203 199 211 223 220 214 214 214 212 207 205 205 209 215 220 229 242 252 245 236 232 234 242 246 241 242 243 233 228 236 251 286 306 313 311 306 300 299 297 292 281 257 230 221 223 228 229 222 210 204 204 206 209 214 214 211 209 207 206 196 179 171 173 174 174
164 169 172 173 174 175 177 177 175 172 170 171 161 140 124 155 191 210 225 228 223 214 216 223 221 218 217 214 213 214 215 216 218 223 231 240 250 259 255 248 249 254 261 262 255 249 249 250 255 264 273 284 297 306 305 299 293 285 282 282 276 265 247 236 234 232 226 218 210 204 202 205 209 210 208 208 209 205 201 196 183 173 174 175 179
144 152 148 145 155 162 166 167 171 173 173 174 176 168 160 166 206 222 229 241 245 232 223 227 227 226 223 217 218 221 223 226 228 229 234 241 249 257 257 256 259 265 270 269 264 257 254 258 263 267 275 281 287 293 293 289 286 276 269 268 269 268 262 253 246 240 230 220 215 208 203 205 210 212 212 212 212 206 198 192 182 172 172 175 182
113 127 126 128 142 148 153 156 159 168 175 178 180 181 183 188 210 230 238 246 249 241 234 237 236 235 234 230 230 232 232 234 236 238 241 245 251 255 257 257 258 261 265 265 265 265 263 264 267 268 273 278 280 282 284 285 285 280 273 265 261 263 263 258 253 247 240 232 224 217 213 214 215 214 214 211 207 202 197 192 183 175 176 179 185
97 100 105 116 127 131 141 149 148 154 166 169 171 180 189 194 208 226 234 239 243 241 241 243 243 244 245 244 244 245 246 247 247 247 248 249 253 255 256 258 258 258 259 261 263 265 265 267 268 269 271 273 275 275 275 277 279 279 277 270 262 259 258 258 257 253 248 243 235 227 225 225 220 214 213 211 204 197 192 189 185 181 184 189 193
87 88 94 105 113 117 125 132 133 137 146 150 152 158 168 175 184 194 197 201 210 210 214 222 228 239 243 244 246 247 250 255 255 255 254 254 255 256 256 257 259 259 261 263 264 265 267 268 268 268 269 269 269 268 266 264 266 266 266 263 259 258 257 258 259 260 260 257 249 243 239 234 228 222 218 212 202 191 183 182 184 185 188 194 199
80 81 83 89 99 107 112 115 118 123 129 134 133 132 140 149 151 151 152 155 161 159 158 163 169 181 193 204 216 225 237 252 258 261 262 261 261 261 260 259 260 261 263 264 266 266 267 268 268 268 269 268 267 267 265 263 262 260 259 256 255 256 257 257 257 258 259 258 254 253 253 247 242 236 223 211 203 196 187 185 187 189 191 196 203
76 78 79 79 85 93 97 99 102 106 112 119 120 119 123 129 130 135 146 153 150 141 140 146 152 162 177 189 195 200 217 236 249 260 266 268 269 267 266 265 264 265 266 266 267 268 269 270 270 270 272 272 272 273 271 270 270 267 263 258 255 254 255 256 257 255 255 255 254 255 260 259 252 240 219 203 200 197 191 189 191 191 188 186 192
74 76 77 77 79 84 88 89 89 90 94 99 100 99 101 103 103 110 125 131 126 122 117 106 109 129 159 195 210 215 225 235 241 247 252 257 261 264 267 271 271 271 271 270 270 270 270 271 270 271 274 275 276 276 275 274 273 271 268 264 260 257 255 255 256 254 252 253 250 248 256 261 250 229 206 193 188 187 184 181 182 184 179 174 184
73 74 76 77 78 80 83 85 84 83 85 86 84 82 84 86 84 86 92 91 88 88 85 78 76 77 80 81 70 57 356 275 261 258 258 258 258 259 263 268 271 272 273 273 275 275 274 273 274 275 276 276 277 277 277 276 275 272 270 267 261 257 254 252 253 251 246 244 241 235 232 224 210 198 190 187 187 186 183 178 178 182 182 179 190
76 77 77 78 79 79 79 81 80 79 78 77 76 73 73 73 69 68 71 70 67 67 66 67 67 63 61 59 52 47 40 24 354 313 293 281 273 269 268 268 269 271 271 272 274 275 274 274 274 275 277 278 279 279 278 277 276 273 271 266 259 255 251 247 246 241 231 227 226 218 200 182 174 172 176 182 185 186 185 184 183 185 187 190 196
78 79 79 78 79 79 79 78 78 77 74 72 71 69 68 67 62 57 57 55 52 50 48 50 54 52 49 44 37 31 27 20 7 350 334 317 301 290 282 278 277 277 278 278 278 276 275 274 275 277 280 283 285 286 284 280 276 274 272 264 256 255 252 245 239 230 217 209 200 187 178 174 176 184 195 198 194 189 184 179 178 184 191 198 201
78 78 77 76 74 73 73 74 74 75 73 70 69 66 63 62 58 51 48 44 38 33 30 30 34 34 31 26 21 17 14 9 1 349 339 330 324 315 302 296 291 286 282 281 280 279 278 279 281 284 287 288 289 289 287 283 280 276 270 261 256 258 256 243 232 225 216 205 193 184 181 181 183 191 198 199 196 188 173 164 171 193 213 212 207
79 77 75 72 69 67 66 66 66 66 65 64 63 61 55 51 48 42 35 27 19 15 11 9 9 8 6 5 4 2 1 0 358 350 340 333 328 323 318 314 305 293 282 275 273 274 276 279 283 286 289 291 292 292 290 287 283 275 269 265 262 261 256 241 227 220 212 201 191 185 182 179 178 182 187 190 189 184 174 171 181 197 202 195 192
80 77 73 70 67 64 62 61 60 60 58 56 55 54 49 43 38 32 23 13 7 2 358 354 352 349 346 344 343 344 345 346 349 348 346 341 333 326 322 318 309 298 288 279 274 272 273 275 276 279 283 286 288 290 289 289 284 276 272 269 263 257 252 239 223 208 199 192 185 179 177 176 177 180 183 184 183 180 178 172 170 171 164 156 165
81 76 72 69 67 64 62 60 59 58 55 52 52 50 46 40 34 29 20 11 5 360 355 351 344 338 335 333 332 331 330 330 333 337 341 342 340 336 330 321 312 302 293 287 283 278 274 272 269 270 275 279 283 286 286 285 283 278 273 267 257 251 245 229 210 196 191 186 179 175 176 179 181 180 179 178 175 169 162 156 150 150 145 140 168
78 73 70 67 65 63 61 58 56 54 50 47 47 45 42 37 32 28 22 15 10 3 359 356 351 345 340 336 333 331 329 329 328 326 327 330 332 334 334 329 320 310 301 298 295 287 281 278 277 277 278 280 282 284 282 281 280 276 270 256 244 240 232 213 198 190 184 179 176 178 181 183 184 180 175 172 165 157 151 147 144 144 139 135 312
71 68 65 63 60 58 56 53 50 46 42 38 36 35 31 28 27 24 17 13 11 6 1 358 354 351 346 340 335 332 330 329 329 326 323 320 319 321 326 330 329 321 312 309 309 302 292 286 285 286 286 286 286 285 284 282 279 277 272 249 231 228 223 207 194 188 183 178 179 183 183 180 177 170 164 161 156 152 151 148 144 140 130 100 14
64 61 58 55 53 50 47 44 39 34 31 28 25 24 22 18 17 16 12 10 8 3 359 355 352 349 345 340 335 331 328 327 327 325 322 319 316 313 314 318 325 325 318 313 314 314 307 296 292 291 289 288 287 283 280 277 274 276 270 244 224 219 214 200 189 185 184 182 182 180 174 168 163 158 155 155 153 151 151 148 143 138 130 93 47
58 55 52 49 46 42 38 35 31 30 29 27 25 24 21 16 12 10 9 8 5 2 358 355 351 346 341 336 332 329 327 326 327 327 325 322 321 317 313 311 313 319 321 317 311 310 308 300 297 295 290 285 280 275 270 265 261 257 248 232 218 211 206 199 193 190 186 180 176 171 164 160 159 156 155 156 154 151 152 152 149 145 137 82 51
56 51 47 44 41 36 33 33 33 33 30 28 25 22 18 15 11 8 6 2 358 356 351 347 345 342 338 334 331 329 326 325 326 326 324 323 322 320 316 313 310 313 319 318 305 294 291 291 293 293 288 279 272 267 262 255 246 233 218 208 203 200 196 192 190 187 180 173 167 163 160 159 159 157 155 157 158 157 157 158 154 145 128 80 55
53 48 44 41 37 35 37 39 37 32 27 24 22 20 15 11 5 2 5 5 357 349 344 341 342 341 336 332 330 327 323 320 320 319 315 313 313 313 311 310 307 306 312 314 300 279 274 281 286 285 278 266 256 252 246 236 225 215 201 190 188 188 185 183 181 177 172 169 166 163 161 159 157 157 158 160 162 161 162 163 155 136 118 86 50
56 49 44 40 36 37 43 42 34 28 23 18 17 17 16 14 11 7 7 7 2 354 347 342 340 338 331 325 320 314 310 309 308 307 304 303 304 304 302 301 299 298 302 306 294 272 266 272 275 270 259 247 239 232 220 204 192 184 180 179 182 182 179 180 181 176 171 170 168 164 162 161 160 163 166 166 165 164 164 163 152 129 112 84 38
58 53 46 39 37 42 44 33 24 24 23 19 17 16 13 14 20 22 15 7 0 357 353 345 341 338 331 324 318 309 303 302 302 302 303 303 303 301 298 296 294 293 297 300 290 271 262 264 264 258 243 233 229 220 202 189 178 169 166 169 175 175 173 176 180 177 171 168 166 165 167 167 166 167 167 165 164 165 163 160 155 147 131 59 22
53 50 43 37 40 45 38 25 19 21 20 16 15 14 9 6 9 12 14 15 13 10 8 5 359 350 340 333 328 321 315 312 309 309 308 307 305 304 301 297 294 292 294 295 284 268 262 260 258 252 237 228 224 213 196 184 175 168 164 163 166 168 171 174 176 173 169 167 166 167 169 168 166 165 164 164 163 160 158 160 166 174 175 15 6
47 44 38 38 44 42 30 21 18 20 19 16 14 13 11 7 1 358 1 11 18 19 19 16 5 351 343 338 335 333 330 325 319 315 312 310 308 304 301 298 295 292 293 291 279 268 264 261 258 251 238 228 221 211 197 187 179 174 171 168 167 169 173 173 170 168 166 167 166 165 166 166 165 164 164 163 157 150 152 163 176 189 210 338 359
40 39 35 38 41 32 23 21 23 26 27 24 20 17 16 13 6 357 356 2 9 14 19 22 17 6 358 352 345 342 340 336 331 325 319 314 310 304 299 297 294 291 290 286 277 268 264 262 260 253 241 231 221 209 198 191 184 178 174 171 169 169 168 165 163 162 162 162 162 162 164 166 165 164 162 157 150 147 152 162 177 194 216 17 24
29 30 31 34 33 24 22 27 33 35 33 27 22 20 17 14 12 8 5 4 3 4 8 13 16 17 16 9 0 353 346 339 336 334 325 316 310 304 301 300 300 298 293 282 271 266 263 265 267 262 251 238 223 210 202 194 184 175 170 168 165 163 161 160 160 159 158 158 159 161 162 162 162 159 154 151 151 152 153 161 177 187 117 49 40
17 21 24 29 27 21 25 33 38 37 31 24 20 18 17 17 17 14 12 10 6 4 6 8 12 21 26 19 10 6 2 353 346 341 335 327 321 317 313 311 311 309 302 291 277 268 264 264 267 267 260 243 225 213 204 191 178 171 169 166 163 161 160 161 159 155 153 154 157 158 160 161 159 155 150 149 150 149 147 150 158 148 103 53 30
10 12 17 21 20 19 25 31 34 32 26 19 17 18 18 21 19 12 9 9 9 10 11 11 14 21 25 20 15 14 11 5 360 360 360 355 349 344 338 330 321 312 307 304 295 281 271 267 264 264 261 247 227 215 203 187 176 173 171 166 163 161 160 158 155 152 151 154 156 159 161 158 154 155 158 152 145 141 137 135 140 149 125 42 16
6 6 8 8 5 10 19 24 26 27 22 15 15 17 17 15 11 7 6 10 13 14 15 17 19 19 17 15 14 12 10 10 11 13 13 9 4 0 355 347 336 322 313 314 311 297 283 272 265 265 261 244 224 210 198 186 179 175 169 163 159 158 157 155 154 156 160 161 160 160 160 155 151 154 152 142 136 137 137 137 144 147 94 54 30
3 2 1 356 349 350 0 15 24 27 22 14 13 16 14 8 5 5 7 12 16 17 18 21 23 20 14 12 11 10 10 13 14 12 9 7 5 3 1 356 350 341 332 327 324 314 295 276 268 268 260 239 218 202 191 182 174 167 163 161 160 162 163 163 162 165 167 164 160 159 158 152 145 140 132 128 130 135 140 144 139 99 67 40 26
359 358 354 347 340 337 344 5 26 29 24 15 11 12 11 6 4 7 11 16 21 22 22 24 24 20 16 13 11 11 15 19 18 14 11 8 5 5 6 4 360 356 351 344 335 323 303 279 266 259 243 220 203 195 188 178 168 164 164 165 165 166 166 165 165 167 167 163 160 159 154 145 137 133 129 129 134 140 139 128 98 67 56 40 31
355 356 351 345 341 341 346 6 32 31 23 13 6 7 9 9 10 14 18 24 27 27 26 28 26 21 17 15 15 18 22 25 25 23 21 17 14 13 14 12 8 7 6 4 357 341 313 282 256 236 215 195 188 187 184 175 168 166 166 164 161 160 162 164 168 169 168 164 162 159 151 143 137 135 133 135 139 140 124 96 64 37 42 56 46
353 355 353 354 359 357 357 10 27 26 19 9 3 5 9 13 19 21 23 28 33 31 27 25 24 23 23 23 25 30 34 35 35 34 31 29 26 25 24 22 19 17 16 14 10 356 328 289 219 198 195 184 179 182 182 177 170 165 160 156 157 159 164 169 171 170 168 166 164 158 150 144 141 138 136 137 136 124 95 68 45 42 55 57 44
348 355 1 9 15 15 16 22 27 26 20 8 4 10 15 18 26 27 26 29 33 31 25 23 25 31 36 40 44 48 48 46 44 42 40 39 37 36 35 34 32 31 30 30 28 18 8 61 111 137 160 164 166 171 172 167 161 156 153 155 159 162 168 174 173 170 170 169 164 158 152 148 145 141 137 134 122 97 75 63 66 71 62 37 27
342 355 6 17 23 28 35 34 30 31 27 7 0 11 19 23 30 32 30 30 32 31 30 32 36 42 51 57 61 62 59 55 51 49 47 48 48 48 48 49 49 48 50 52 52 52 62 85 105 122 138 145 147 150 151 151 150 149 152 156 158 162 170 176 174 174 177 175 166 160 156 153 149 143 141 136 115 83 68 67 81 81 56 25 22
334 353 10 22 30 41 48 39 28 33 45 24 1 10 20 28 35 37 35 32 32 33 38 45 50 54 62 66 66 64 61 58 57 56 55 56 58 59 60 63 65 67 68 71 74 78 84 93 103 114 122 126 128 131 136 140 143 144 146 152 159 165 170 175 175 175 180 178 168 160 156 154 150 146 146 148 129 88 71 80 97 88 47 27 28
308 344 10 29 45 54 54 40 26 32 55 56 9 13 24 31 38 43 44 40 39 40 46 54 61 65 68 68 62 54 51 52 56 60 62 63 65 66 67 69 72 75 78 80 82 84 87 90 94 100 106 112 117 123 128 133 137 141 146 157 166 168 169 170 167 163 165 168 164 158 155 153 152 152 158 167 162 98 65 73 80 67 30 21 27
267 306 348 26 58 63 57 38 24 29 45 48 23 25 36 43 41 47 55 55 53 51 53 60 68 71 70 65 59 53 52 53 57 61 64 66 69 71 72 72 73 74 77 79 80 80 80 80 81 82 86 91 99 107 115 123 134 144 151 155 158 159 159 158 156 155 157 159 159 157 154 150 146 143 145 166 188 227 33 60 64 50 29 18 21
246 247 256 281 77 87 70 29 21 24 38 50 39 34 43 51 54 59 65 65 63 60 58 61 66 67 65 64 62 58 57 59 61 64 67 69 70 71 73 75 77 77 77 77 78 78 79 81 82 83 86 89 92 98 105 115 124 130 134 138 141 142 142 142 143 145 147 147 148 149 146 134 121 108 92 116 197 264 311 12 43 36 29 18 11
240 231 230 230 194 167 207 268 11 24 42 67 67 51 51 57 63 72 73 68 65 64 63 64 65 62 59 62 63 61 59 59 60 63 67 69 69 68 69 73 77 79 78 77 76 76 78 80 82 85 90 92 93 95 100 106 112 115 117 120 122 122 123 123 124 126 130 134 136 137 132 120 108 72 36 35 226 256 285 291 354 26 29 18 7
236 227 225 225 213 192 205 228 320 32 59 78 82 72 70 72 74 80 81 73 69 69 67 67 66 61 56 55 56 58 61 63 61 62 64 65 64 64 66 69 73 74 74 73 72 71 72 74 76 80 86 89 90 93 96 101 105 108 108 109 111 111 110 110 112 116 121 125 127 127 119 82 14 344 324 275 244 243 250 300 348 14 22 14 6
238 229 223 221 219 211 207 216 231 176 98 91 74 68 80 86 84 79 69 63 74 79 77 70 66 60 53 52 54 55 59 63 63 62 62 59 55 53 56 62 67 70 70 69 69 68 68 68 70 76 84 91 93 94 97 102 106 108 106 105 105 104 104 105 107 110 112 112 105 95 77 43 18 356 307 263 257 263 278 309 337 349 353 353 352
Height
794 798 801 804 806 807 809 811 813 815 816 818 820 822 824 826 827 828 829 830 830 832 834 836 837 837 838 839 839 840 841 842 843 845 846 847 848 848 849 850 850 851 851 851 851 851 852 852 852 853 854 855 856 857 859 860 861 862 863 864 864 865 866 866 867 869 871 873 874 875 875 876 877 877 877 878 878 879 879 880 880 880 881 881 881
794 798 801 803 806 808 809 811 813 815 816 817 820 822 824 826 827 828 829 830 830 831 834 836 837 838 838 839 840 840 841 842 844 845 846 847 848 849 850 850 851 851 852 852 852 853 853 853 853 854 855 856 857 858 859 860 861 862 862 863 863 864 865 866 867 868 870 871 873 874 874 875 876 876 877 877 878 878 879 879 879 880 880 880 880
794 798 801 803 806 808 809 811 813 814 815 817 819 821 823 825 827 828 829 830 830 831 834 836 838 839 839 840 840 841 842 843 844 845 846 847 848 849 850 851 851 852 852 853 853 853 854 854 854 855 856 857 857 858 859 860 861 862 862 863 863 863 865 866 867 868 869 870 872 872 873 875 875 876 877 877 878 878 878 879 879 879 879 879 880
794 798 801 803 805 807 809 811 813 814 815 817 819 821 822 825 827 828 829 829 829 831 833 836 838 839 840 840 841 842 842 843 844 845 846 847 848 849 850 851 852 852 853 853 854 854 854 855 855 856 856 857 858 859 859 860 861 861 862 862 863 863 864 866 867 867 868 869 870 872 873 874 875 876 876 877 877 878 878 878 879 879 879 879 879
794 797 800 803 805 806 808 810 812 814 815 817 819 821 822 824 827 828 829 829 829 831 834 836 838 839 840 841 841 842 843 844 844 845 846 847 848 849 850 851 852 853 853 854 854 854 855 855 856 856 857 857 858 859 859 860 860 861 861 861 862 862 863 865 866 867 867 868 869 871 872 873 874 875 876 876 877 877 877 878 878 878 878 878 879
793 796 799 802 804 806 807 809 811 813 815 816 818 820 821 824 826 828 829 829 830 832 834 836 838 839 840 841 842 842 843 844 844 845 846 847 848 849 850 851 852 853 854 854 855 855 855 855 856 856 857 857 858 858 859 859 860 860 860 861 861 862 863 864 865 866 867 867 868 869 870 871 873 874 874 875 876 876 876 877 877 878 878 878 878
793 795 798 800 803 804 806 808 810 812 814 816 818 819 821 824 826 828 829 829 830 832 835 837 838 839 840 841 842 842 843 844 845 846 846 847 848 849 850 851 852 853 854 854 854 855 855 855 856 856 857 857 857 858 858 858 859 859 860 860 861 861 862 864 865 865 866 866 867 868 869 870 871 872 873 874 875 875 875 875 876 877 877 877 877
794 797 798 800 802 804 806 808 810 812 814 816 817 819 821 824 826 829 829 830 831 833 835 837 838 839 840 841 841 842 843 844 845 846 847 847 848 849 850 851 852 852 853 854 854 855 855 855 855 856 856 856 856 857 857 858 858 859 859 860 860 861 862 863 864 865 865 865 866 866 867 868 869 870 871 872 872 873 873 874 874 875 875 876 876
796 798 800 802 803 805 807 809 811 812 814 816 818 819 822 825 827 829 830 830 832 834 835 837 838 839 840 840 841 842 842 843 844 845 846 847 848 849 850 850 851 852 852 853 854 854 854 854 855 855 855 855 856 856 857 857 858 858 859 859 860 861 862 862 863 863 864 864 864 865 866 867 867 868 869 869 869 870 871 872 872 873 874 874 875
797 799 801 803 804 805 808 810 812 813 814 817 819 820 823 826 828 829 829 830 832 834 835 837 838 839 840 840 841 842 842 843 843 844 845 846 847 848 849 849 850 851 851 852 853 853 854 854 854 854 854 855 855 856 856 857 857 858 858 859 860 860 861 862 862 862 863 863 863 863 864 864 865 865 866 866 867 868 869 870 871 872 873 873 874
799 800 802 803 805 806 808 811 812 814 815 818 820 822 824 826 827 829 830 832 833 834 835 836 837 838 839 840 841 841 842 842 843 844 844 845 846 847 848 848 849 850 850 851 851 852 853 853 853 853 853 854 854 854 855 856 856 857 857 858 859 859 860 861 861 861 861 861 861 861 862 862 862 863 864 865 865 866 867 868 869 870 871 872 872
801 802 804 805 807 809 811 812 813 815 817 819 820 821 823 824 827 830 832 833 833 833 834 835 836 837 838 839 840 841 841 842 842 843 844 844 845 846 846 847 847 848 849 849 850 850 851 851 852 852 852 852 853 853 854 854 855 855 856 857 858 859 859 860 860 860 860 860 859 859 859 860 860 861 862 862 863 864 865 866 867 868 869 870 870
804 805 806 808 810 812 813 814 815 816 819 820 820 821 822 825 828 830 831 832 832 833 834 834 835 836 837 838 839 839 840 840 841 841 842 843 844 844 845 845 846 847 847 848 848 849 849 850 850 850 851 851 851 852 853 853 854 854 855 855 856 857 858 859 859 859 859 858 858 857 857 857 857 858 859 859 860 862 863 865 865 866 867 868 868
808 809 810 811 812 813 814 815 817 818 820 821 821 823 824 826 828 829 830 832 833 833 834 834 835 835 836 837 837 838 838 839 839 839 840 841 841 842 843 843 844 845 845 846 846 847 847 848 848 849 849 850 850 850 851 852 852 853 853 853 854 855 855 856 857 857 857 856 856 855 856 856 855 855 856 857 858 859 860 862 863 864 865 866 867
812 813 814 815 815 815 816 817 819 821 822 822 823 825 826 827 828 829 830 832 833 833 834 834 834 835 836 836 837 837 838 838 838 838 838 839 840 840 841 841 842 843 843 844 844 845 846 846 846 847 847 848 848 848 849 849 850 850 850 851 852 852 852 853 854 854 854 854 854 854 854 854 854 853 853 854 855 857 858 860 861 862 863 864 865
816 817 818 819 820 820 820 820 822 824 825 825 825 826 827 828 829 830 831 832 833 833 834 834 834 834 835 836 836 837 837 837 837 837 837 837 838 839 839 840 840 841 842 842 843 843 844 844 845 845 845 845 846 846 846 847 847 847 848 848 848 849 850 850 851 851 852 852 852 852 852 853 853 853 852 852 853 855 856 858 859 860 862 863 864
820 821 822 824 824 824 824 823 825 827 827 827 828 828 829 830 831 832 833 833 834 834 834 834 834 834 835 835 836 836 836 836 836 836 836 836 836 837 837 838 839 839 840 841 841 842 843 843 843 843 843 843 844 844 844 844 844 845 845 845 846 846 847 848 848 848 849 849 849 849 850 851 853 854 854 853 852 852 854 856 857 859 860 862 863
824 825 826 827 827 828 828 828 829 830 830 830 831 831 831 832 833 833 834 834 835 835 835 835 834 834 835 835 836 836 836 836 836 835 836 836 836 836 836 836 837 837 838 838 839 840 841 841 841 841 841 841 841 842 842 842 842 843 843 843 843 844 845 845 845 846 847 847 848 848 848 849 852 855 856 856 854 853 853 854 856 858 859 860 861
828 828 829 830 830 831 831 831 831 832 832 833 833 834 834 834 835 835 835 835 836 836 836 836 835 835 835 835 836 836 836 836 836 835 835 835 835 835 835 835 835 835 836 836 837 838 839 839 839 839 839 839 839 839 840 840 840 841 841 841 841 841 842 843 843 844 845 845 846 847 847 848 850 853 855 857 857 855 853 854 855 857 858 859 860
831 831 831 831 831 832 832 832 833 833 834 834 834 835 835 836 836 836 836 837 837 837 837 836 836 836 836 836 836 836 836 836 835 835 835 835 835 834 834 834 833 833 834 834 835 835 836 836 836 836 836 836 836 836 837 837 838 838 839 839 838 838 840 841 842 843 843 844 845 846 846 847 849 851 854 856 857 855 854 854 855 857 858 859 859
833 833 832 832 833 833 833 834 834 834 835 835 835 835 835 836 836 836 836 837 837 837 836 836 836 836 836 837 836 836 836 835 835 835 835 834 834 833 833 832 832 832 832 832 832 832 832 832 833 833 832 832 832 833 833 834 835 835 835 836 836 836 838 839 840 841 842 842 843 844 845 846 848 850 853 855 856 855 854 854 855 856 858 859 859
836 835 835 834 835 835 835 835 835 835 836 836 835 835 835 836 836 835 835 836 836 836 836 835 835 836 836 836 836 836 835 835 835 834 834 833 833 832 832 832 831 831 830 830 829 829 829 829 829 829 829 829 829 830 830 831 831 832 832 833 833 834 836 837 838 839 840 841 842 843 844 846 848 850 852 853 854 853 853 853 855 856 858 859 860
838 838 837 836 837 837 837 837 837 837 837 837 836 836 836 836 835 835 835 835 835 835 835 834 834 834 835 835 835 835 835 834 834 833 832 832 832 831 831 831 830 829 828 827 826 826 826 825 825 826 826 826 826 827 827 827 828 828 829 830 832 833 834 835 836 837 838 839 841 843 844 846 847 849 850 851 852 852 852 853 855 856 858 858 859
839 838 838 838 838 838 838 838 838 838 838 837 837 837 836 836 836 835 835 835 835 835 835 834 834 833 833 834 834 834 834 833 833 833 832 832 831 831 830 830 829 828 826 825 824 823 823 823 823 823 823 823 823 824 823 824 824 824 825 827 829 831 833 834 835 837 838 839 841 843 844 846 846 848 849 850 851 851 852 853 855 856 857 858 859
838 838 838 838 839 838 839 838 838 838 838 837 837 836 836 836 836 836 836 836 835 835 834 833 833 832 832 832 831 831 831 831 831 831 831 831 830 830 829 828 827 826 824 823 822 821 821 821 821 821 821 821 821 821 820 820 821 821 822 823 825 827 829 830 832 834 836 838 840 842 844 845 846 847 848 849 850 851 852 853 855 856 857 857 858
839 839 839 839 839 839 839 838 838 838 837 837 836 836 835 835 835 835 835 835 835 834 833 833 832 831 831 830 829 829 829 829 829 829 829 828 828 827 827 826 825 824 823 822 821 820 819 819 819 819 819 819 818 818 818 818 817 818 818 819 821 823 826 827 828 831 834 837 839 840 842 844 846 847 848 849 850 851 852 854 855 856 856 857 857
840 841 841 841 841 840 839 839 838 838 837 837 836 836 835 835 834 834 834 833 833 833 832 832 831 831 830 829 828 828 827 827 827 827 826 826 825 825 824 824 823 822 821 820 819 818 818 818 818 818 818 817 816 815 815 814 814 814 815 816 818 820 822 825 827 829 831 834 837 839 841 842 844 845 847 848 850 851 853 854 854 855 856 855 856
842 842 842 842 841 841 840 839 839 838 838 837 836 836 835 835 834 834 833 833 832 832 831 831 830 830 829 827 826 825 825 824 824 824 823 823 822 822 822 822 821 820 820 819 818 817 817 817 817 817 816 815 814 813 812 812 812 812 813 815 817 818 819 821 824 827 829 832 835 837 839 840 842 844 846 847 849 851 852 853 854 854 854 854 854
844 843 843 843 842 842 841 840 840 839 839 838 837 837 836 835 835 834 834 833 833 832 831 831 830 829 828 827 826 825 823 823 823 823 822 822 821 821 820 820 819 819 818 818 817 816 816 816 815 815 815 814 813 812 811 811 811 811 812 813 817 819 820 822 824 827 829 831 833 835 837 839 841 844 846 847 849 851 852 853 853 853 852 852 853
845 844 844 843 843 842 842 841 840 840 839 838 837 837 836 835 835 834 833 833 832 832 831 830 829 829 828 827 827 826 824 823 823 822 821 821 820 820 819 819 818 817 816 816 815 814 814 814 814 813 813 813 812 812 811 810 810 810 811 812 815 818 821 824 827 829 830 830 832 834 837 839 841 843 845 846 848 850 851 852 851 851 851 852 853
845 844 844 844 843 842 842 841 841 840 839 838 837 836 836 835 834 834 833 832 831 831 830 830 829 828 827 826 826 825 824 823 822 821 820 819 819 818 817 817 816 815 815 814 813 812 812 812 812 811 812 811 811 811 811 810 810 810 811 813 814 816 819 823 828 830 831 832 834 835 837 839 841 843 844 845 847 848 850 850 850 851 851 852 852
844 844 844 843 843 843 842 842 841 840 840 839 838 837 836 834 833 833 833 833 832 831 830 829 828 828 827 826 825 823 822 821 821 819 818 817 816 816 815 814 814 813 813 812 811 810 810 810 810 810 810 810 810 810 810 810 810 810 811 813 815 817 819 823 826 829 831 833 835 836 838 840 841 843 844 845 845 846 847 849 850 851 852 852 852
844 844 843 843 843 843 842 842 841 840 840 839 838 837 836 835 833 832 831 831 831 830 829 829 828 826 826 825 824 823 821 820 819 818 817 816 815 814 813 812 811 811 810 810 809 809 809 808 808 808 808 808 808 809 810 810 810 810 811 813 815 818 820 823 826 829 832 834 835 837 839 840 841 842 843 844 844 844 845 848 850 852 852 852 851
844 844 843 843 843 843 842 842 841 840 840 839 838 837 836 835 834 832 830 829 828 828 828 827 826 825 824 824 823 822 820 819 818 817 816 814 813 812 811 810 809 809 808 808 807 807 807 807 807 807 807 808 808 809 809 810 810 811 812 813 815 818 820 824 827 830 833 835 836 837 839 840 841 842 842 842 842 843 845 848 851 852 852 851 850
844 844 844 843 843 842 842 841 841 840 840 839 838 837 836 835 834 833 832 831 829 828 827 826 825 825 824 823 822 821 819 818 817 816 814 813 811 810 809 808 807 806 806 806 806 806 806 806 806 807 807 808 808 808 809 809 810 811 812 814 816 818 821 825 828 830 833 835 836 838 839 841 842 842 842 842 843 844 845 848 851 852 851 850 849
845 844 844 843 843 842 842 842 841 841 840 839 838 837 836 835 834 833 832 832 831 829 828 826 825 824 824 822 821 820 818 817 816 815 813 812 810 808 807 806 805 805 805 805 805 805 805 805 805 806 807 807 808 808 808 809 810 812 813 815 817 820 823 826 829 831 833 835 836 838 839 840 841 842 842 842 843 844 846 849 851 851 850 849 849
845 844 844 843 843 843 842 842 842 841 840 840 839 838 837 836 835 834 833 832 831 830 829 827 825 824 823 822 821 819 818 817 816 814 813 811 809 808 806 805 805 805 805 805 805 805 805 804 804 804 805 806 807 808 809 810 811 812 814 816 818 821 824 827 829 832 834 835 836 838 839 840 841 842 842 843 844 845 847 849 850 851 850 849 849
845 845 844 844 844 843 843 843 842 842 841 840 840 839 838 837 836 835 834 833 831 830 829 828 826 825 824 822 821 819 818 816 814 813 812 810 809 807 806 805 805 804 804 804 804 804 804 804 804 804 804 804 805 807 809 810 812 813 815 817 820 823 826 828 830 832 834 835 837 838 839 840 841 842 843 843 844 845 847 849 850 850 849 848 848
846 846 845 845 844 844 844 843 843 843 842 841 840 839 839 838 837 836 835 834 833 831 830 829 828 826 825 824 822 820 818 816 814 813 812 811 809 808 807 806 805 804 804 803 803 803 803 803 804 804 804 804 805 806 809 810 812 814 816 818 821 824 827 829 831 832 834 835 837 838 839 841 842 842 843 843 845 846 848 850 851 850 848 847 847
846 846 845 845 845 844 844 844 844 843 843 842 842 841 840 839 838 837 836 835 834 833 831 830 829 828 827 825 823 822 820 818 817 816 814 812 810 809 807 806 805 805 804 804 803 803 802 803 803 804 804 805 806 807 809 811 812 815 818 820 822 825 827 829 831 833 834 836 838 839 840 841 841 842 843 844 846 848 849 850 850 848 847 847 848
846 846 845 845 845 845 845 845 845 844 844 843 842 842 840 839 839 838 837 836 835 834 833 832 830 830 829 827 826 824 823 821 820 818 816 814 812 811 809 808 807 806 805 804 803 803 802 802 803 804 805 806 807 809 811 813 814 817 819 821 823 826 828 830 832 834 836 837 839 840 841 841 841 842 843 845 847 849 850 849 848 847 847 847 848
846 846 845 845 845 845 845 845 845 845 844 844 843 842 841 840 840 839 838 837 836 835 834 833 832 831 830 829 828 827 825 823 822 820 818 817 815 813 812 810 809 808 807 806 805 804 803 803 803 804 805 807 808 810 812 814 816 818 821 823 825 828 830 832 834 836 837 839 840 840 841 841 841 843 844 846 848 849 849 848 847 847 847 848 848
846 846 845 845 845 845 845 845 846 845 845 844 844 843 842 841 840 840 839 838 837 836 836 835 834 833 832 831 830 829 827 826 824 822 821 819 818 816 815 813 812 811 809 808 807 806 805 805 805 806 807 809 810 812 814 816 818 820 822 825 827 830 832 834 836 837 839 840 841 841 841 842 843 844 845 847 848 848 848 847 847 847 847 847 847
846 846 845 845 845 845 846 846 846 846 845 845 844 844 843 842 842 841 840 839 839 838 837 837 836 835 834 834 833 831 830 828 827 826 824 823 821 819 818 817 815 814 812 811 810 809 809 808 808 809 810 812 813 815 817 820 822 823 825 827 829 831 833 835 836 838 840 841 841 841 842 843 844 845 845 846 847 847 847 847 847 847 847 847 847
846 846 846 846 846 846 846 846 846 846 846 846 845 844 844 843 843 842 842 841 840 840 839 839 838 837 837 836 835 834 833 832 831 829 828 826 824 823 822 820 819 817 816 815 815 814 813 813 814 814 815 816 817 819 821 823 825 826 827 829 831 832 834 836 837 839 840 841 841 842 843 844 844 845 845 846 847 848 848 847 847 846 847 847 847
846 846 846 846 846 846 847 847 847 847 847 846 846 845 845 844 844 844 843 843 842 842 841 841 840 839 839 838 837 836 835 834 833 832 831 830 828 827 825 824 823 822 821 820 820 819 819 819 820 820 820 821 822 823 825 826 828 829 830 831 833 834 836 837 838 839 840 841 842 843 843 844 845 845 846 847 847 848 848 847 846 846 846 847 847
846 846 846 846 846 847 847 847 847 847 847 847 846 846 846 845 845 845 844 844 844 843 843 842 842 841 841 840 839 839 838 837 836 835 834 833 831 830 829 828 827 826 825 825 824 824 824 824 824 825 825 826 827 827 828 829 830 831 832 833 835 836 837 838 839 840 841 842 843 844 844 845 845 845 846 846 847 847 847 847 847 846 846 846 846
845 846 846 847 847 847 847 848 848 848 847 847 847 847 846 846 846 846 846 845 845 845 844 844 843 843 842 841 841 840 840 839 838 837 837 836 835 834 833 832 831 831 830 829 829 828 829 829 829 830 830 830 831 831 832 832 833 834 834 836 837 838 839 839 840 841 842 842 843 844 845 845 845 845 845 846 846 847 847 847 847 846 846 845 846
845 845 846 846 847 847 847 847 848 848 847 847 847 847 847 847 847 847 846 846 846 846 845 845 844 844 843 843 843 842 842 841 840 840 839 838 838 837 836 835 835 834 834 833 833 833 833 833 833 834 834 834 834 834 834 835 836 836 837 838 839 839 840 841 841 842 843 843 844 844 845 845 845 846 846 846 847 847 848 848 847 846 845 845 845
844 845 845 846 846 846 847 847 847 847 847 847 847 847 847 847 847 847 847 847 847 846 846 846 845 845 845 844 844 843 843 843 842 841 841 841 840 840 839 838 838 837 837 836 836 836 836 836 836 836 837 837 837 837 837 837 838 838 839 840 840 841 841 842 843 843 844 844 845 845 845 846 846 846 846 847 847 848 848 847 846 845 845 845 845
843 843 844 845 846 846 846 847 847 847 847 847 847 847 847 847 847 847 847 847 847 847 847 846 846 846 845 845 845 844 844 844 843 843 843 842 842 842 841 841 840 840 839 839 839 839 838 838 838 838 839 839 839 839 839 840 840 841 841 842 842 843 843 844 844 845 845 845 845 846 846 846 846 847 847 848 848 848 847 846 845 845 845 845 845